Change the Weather History Date:

Saturday, January 26, 2013

  Actual Average Record
Temperature  
Mean Temperature 45 °F -  
Max Temperature 60 °F 43 °F 68 °F (2015)
Min Temperature 30 °F 24 °F 15 °F (2004)
Degree Days  
Heating Degree Days 20    
Moisture  
Dew Point 24 °F    
Average Humidity 47    
Maximum Humidity 79    
Minimum Humidity 21    
Precipitation  
Precipitation 0.00 in - - ()
Sea Level Pressure  
Sea Level Pressure 30.20 in    
Wind  
Wind Speed 6 mph (SE)    
Max Wind Speed 14 mph    
Max Gust Speed 20 mph    
Visibility 10 miles    
Events Rain    
Averages and records for this station are not official NWS values.
T = Trace of Precipitation, MM = Missing Value Source: NWS Daily Summary

Daily Weather History Graph

Daily Weather History Graph

Search for Another Location

Airport or City:

Trip Planner

Search our weather history database for the weather conditions in past years. The results will help you decide how hot, cold, wet, or windy it might be!

Date:

Astronomy

Jan. 26, 2013 Rise Set
Actual Time 7:29 AM CST 5:41 PM CST
Civil Twilight 7:01 AM CST 6:08 PM CST
Nautical Twilight 6:30 AM CST 6:40 PM CST
Astronomical Twilight 5:59 AM CST 7:10 PM CST
Moon 5:35 PM CST (1/26) 6:48 AM CST (1/26)
Length of Visible Light 11h 07m
Length of Day
10h 11m
Full, 100% of the Moon is Illuminated
Jan 26
Full
Jan 26
Full
Feb 3
Last Quarter
Feb 10
New
Feb 17
First Quarter

Hourly Weather History & Observations

Time (CST) Temp. Windchill Dew Point Humidity Pressure Visibility Wind Dir Wind Speed Gust Speed Precip Events Conditions
12:52 AM 35.1 °F 32.2 °F 26.1 °F 70% 30.28 in 10.0 mi East 3.5 mph - N/A   Clear
1:52 AM 34.0 °F - 26.1 °F 73% 30.27 in 10.0 mi Calm Calm - N/A   Clear
2:52 AM 35.1 °F - 26.1 °F 70% 30.27 in 10.0 mi Calm Calm - N/A   Clear
3:52 AM 33.1 °F 30.0 °F 26.1 °F 75% 30.25 in 10.0 mi NE 3.5 mph - N/A   Clear
4:52 AM 30.0 °F 25.2 °F 24.1 °F 79% 30.24 in 10.0 mi ENE 4.6 mph - N/A   Clear
5:52 AM 32.0 °F 26.4 °F 25.0 °F 75% 30.25 in 10.0 mi ENE 5.8 mph - N/A   Clear
6:52 AM 30.0 °F 23.2 °F 24.1 °F 79% 30.27 in 10.0 mi ENE 6.9 mph - N/A   Clear
7:52 AM 32.0 °F 28.7 °F 25.0 °F 75% 30.28 in 10.0 mi East 3.5 mph - N/A   Clear
8:52 AM 37.0 °F 33.3 °F 27.0 °F 67% 30.27 in 9.0 mi East 4.6 mph - N/A   Clear
9:52 AM 46.9 °F - 27.0 °F 46% 30.28 in 10.0 mi East 4.6 mph - N/A   Clear
10:52 AM 55.0 °F - 19.9 °F 25% 30.28 in 10.0 mi South 13.8 mph - N/A   Clear
11:52 AM 55.9 °F - 19.9 °F 25% 30.25 in 10.0 mi SSE 10.4 mph - N/A   Clear
12:52 PM 57.9 °F - 19.0 °F 22% 30.20 in 10.0 mi SSE 12.7 mph - N/A   Clear
1:52 PM 60.1 °F - 19.9 °F 21% 30.17 in 10.0 mi SE 11.5 mph 16.1 mph N/A   Clear
2:52 PM 60.1 °F - 21.9 °F 23% 30.16 in 10.0 mi South 9.2 mph - N/A   Clear
3:52 PM 57.9 °F - 23.0 °F 26% 30.15 in 10.0 mi South 10.4 mph - N/A   Scattered Clouds
4:52 PM 55.0 °F - 24.1 °F 30% 30.14 in 10.0 mi South 8.1 mph - N/A   Partly Cloudy
5:52 PM 53.1 °F - 25.0 °F 34% 30.14 in 10.0 mi South 8.1 mph - N/A   Overcast
6:52 PM 52.0 °F - 24.1 °F 34% 30.15 in 10.0 mi South 6.9 mph - N/A   Overcast
7:52 PM 52.0 °F - 26.1 °F 37% 30.15 in 10.0 mi South 12.7 mph - N/A   Overcast
8:52 PM 51.1 °F - 26.1 °F 38% 30.12 in 10.0 mi SSE 12.7 mph - N/A   Overcast
9:52 PM 50.0 °F - 25.0 °F 38% 30.12 in 10.0 mi South 12.7 mph - N/A   Overcast
10:15 PM 50.0 °F - 24.8 °F 37% 30.12 in 10.0 mi South 11.5 mph - N/A   Overcast
10:27 PM 50.0 °F - 24.8 °F 37% 30.11 in 10.0 mi South 12.7 mph 19.6 mph 0.00 in Rain Light Rain
10:52 PM 50.0 °F - 26.1 °F 39% 30.11 in 10.0 mi SSE 13.8 mph - 0.00 in   Overcast
11:52 PM 48.0 °F - 30.0 °F 50% 30.10 in 10.0 mi South 10.4 mph - 0.00 in Rain Light Rain